NKS3427 KFLL-KSAV

Flight info

Callsign NKS3427
Flight time 1h 2m
Altitude 37000
Route AGERS1 DUCEN Q87 VIYAP
Aircraft A320/M-SDE3FGHIRWY/LB1

Departure

Time 2026-05-03 22:15
Airport Fort Lauderdale Hollywood International Airport (KFLL)

Arrival

Time 2026-05-03 23:18
Airport Savannah Hilton Head International Airport (KSAV)
Time Latitude Longitude Altitude Speed Heading
2026-05-03 21:22 26.06883 -80.14432 16 ft 0 kts
2026-05-03 21:43 26.06861 -80.14432 18 ft 4 kts
2026-05-03 21:43 26.06839 -80.14432 17 ft 4 kts 352°
2026-05-03 21:44 26.06819 -80.14421 16 ft 4 kts 281°
2026-05-03 21:44 26.06818 -80.14396 16 ft 1 kts 270°
2026-05-03 21:44 26.06818 -80.14395 16 ft 0 kts 270°
2026-05-03 21:52 26.06818 -80.14420 16 ft 12 kts 270°
2026-05-03 21:52 26.06818 -80.14534 16 ft 16 kts 269°
2026-05-03 21:52 26.06771 -80.14643 15 ft 17 kts 255°
2026-05-03 21:52 26.06765 -80.14779 15 ft 19 kts 270°
2026-05-03 21:53 26.06767 -80.14936 15 ft 22 kts 271°
2026-05-03 21:53 26.06764 -80.15106 16 ft 17 kts 252°
2026-05-03 21:53 26.06714 -80.15142 21 ft 17 kts 218°
2026-05-03 21:53 26.06695 -80.15313 16 ft 26 kts 269°
2026-05-03 21:54 26.06696 -80.15524 16 ft 24 kts 272°
2026-05-03 21:54 26.06697 -80.15643 16 ft 9 kts 271°
2026-05-03 21:54 26.06697 -80.15670 16 ft 0 kts 270°
2026-05-03 22:05 26.06698 -80.15689 16 ft 10 kts 270°
2026-05-03 22:05 26.06698 -80.15747 16 ft 0 kts 270°
2026-05-03 22:08 26.06698 -80.15758 16 ft 8 kts 270°
2026-05-03 22:09 26.06684 -80.15814 18 ft 0 kts 229°
2026-05-03 22:10 26.06683 -80.15815 16 ft 0 kts 228°
2026-05-03 22:12 26.06682 -80.15815 16 ft 0 kts 228°
2026-05-03 22:14 26.06646 -80.15822 18 ft 16 kts 180°
2026-05-03 22:14 26.06589 -80.15745 20 ft 16 kts 88°
2026-05-03 22:15 26.06588 -80.15464 23 ft 72 kts 90°
2026-05-03 22:15 26.06583 -80.14666 33 ft 132 kts 91°
2026-05-03 22:15 26.06582 -80.13494 209 ft 164 kts 89°
2026-05-03 22:15 26.06587 -80.12177 683 ft 180 kts 87°
2026-05-03 22:16 26.06809 -80.10737 1065 ft 199 kts 64°
2026-05-03 22:16 26.07572 -80.09360 1426 ft 218 kts 55°
2026-05-03 22:16 26.08472 -80.07881 1826 ft 243 kts 50°
2026-05-03 22:16 26.09881 -80.06766 2457 ft 262 kts 21°
2026-05-03 22:17 26.11595 -80.06074 3410 ft 267 kts 19°
2026-05-03 22:17 26.13365 -80.05370 3812 ft 269 kts 19°
2026-05-03 22:17 26.15179 -80.04855 3964 ft 269 kts
2026-05-03 22:17 26.17000 -80.05154 4011 ft 268 kts 341°
2026-05-03 22:18 26.18788 -80.05850 4017 ft 269 kts 340°
2026-05-03 22:18 26.20505 -80.06607 4016 ft 269 kts 331°
2026-05-03 22:18 26.22012 -80.07844 4016 ft 269 kts 314°
2026-05-03 22:18 26.23134 -80.09505 4016 ft 268 kts 298°
2026-05-03 22:19 26.23864 -80.11414 4018 ft 268 kts 291°
2026-05-03 22:19 26.24558 -80.13369 4692 ft 272 kts 293°
2026-05-03 22:19 26.25517 -80.15165 5672 ft 275 kts 308°
2026-05-03 22:19 26.26917 -80.16634 6613 ft 281 kts 323°
2026-05-03 22:20 26.28067 -80.17374 7214 ft 285 kts 332°
2026-05-03 22:20 26.28446 -80.17580 7408 ft 284 kts 333°
2026-05-03 22:20 26.30260 -80.18539 8274 ft 289 kts 331°
2026-05-03 22:20 26.32069 -80.19548 9103 ft 292 kts 330°
2026-05-03 22:21 26.33868 -80.20577 9896 ft 295 kts 329°
2026-05-03 22:21 26.35741 -80.21656 10364 ft 313 kts 329°
2026-05-03 22:21 26.37833 -80.22609 10705 ft 335 kts 341°
2026-05-03 22:21 26.40177 -80.23050 11346 ft 345 kts 351°
2026-05-03 22:22 26.42584 -80.23289 12090 ft 348 kts 351°
2026-05-03 22:22 26.44980 -80.23529 12820 ft 352 kts 351°
2026-05-03 22:22 26.47433 -80.23775 13536 ft 355 kts 350°
2026-05-03 22:22 26.49910 -80.24027 14229 ft 358 kts 350°
2026-05-03 22:23 26.52416 -80.24284 14914 ft 362 kts 350°
2026-05-03 22:23 26.54910 -80.24541 15576 ft 365 kts 349°
2026-05-03 22:23 26.57446 -80.24825 16223 ft 368 kts 348°
2026-05-03 22:23 26.59996 -80.25201 16865 ft 370 kts 346°
2026-05-03 22:24 26.62563 -80.25642 17499 ft 373 kts 345°
2026-05-03 22:24 26.65141 -80.26110 18120 ft 376 kts 345°
2026-05-03 22:24 26.67742 -80.26579 18741 ft 380 kts 345°
2026-05-03 22:24 26.70317 -80.27078 19323 ft 381 kts 340°
2026-05-03 22:25 26.72826 -80.27986 19899 ft 378 kts 333°
2026-05-03 22:25 26.75300 -80.29030 20478 ft 382 kts 333°
2026-05-03 22:25 26.77805 -80.30083 21028 ft 386 kts 333°
2026-05-03 22:25 26.80335 -80.31140 21557 ft 390 kts 333°
2026-05-03 22:26 26.82887 -80.32206 22086 ft 394 kts 333°
2026-05-03 22:26 26.85463 -80.33282 22614 ft 397 kts 332°
2026-05-03 22:26 26.88064 -80.34371 23140 ft 400 kts 332°
2026-05-03 22:26 26.90680 -80.35467 23639 ft 404 kts 332°
2026-05-03 22:27 26.93321 -80.36573 24133 ft 407 kts 332°
2026-05-03 22:27 26.95991 -80.37682 24607 ft 411 kts 332°
2026-05-03 22:27 26.98685 -80.38775 25039 ft 415 kts 333°
2026-05-03 22:27 27.01416 -80.39870 25474 ft 418 kts 333°
2026-05-03 22:28 27.04168 -80.40967 25894 ft 421 kts 333°
2026-05-03 22:28 27.06937 -80.42072 26334 ft 424 kts 332°
2026-05-03 22:28 27.09723 -80.43190 26747 ft 426 kts 332°
2026-05-03 22:28 27.12513 -80.44361 27156 ft 429 kts 330°
2026-05-03 22:29 27.15302 -80.45588 27552 ft 431 kts 329°
2026-05-03 22:29 27.18092 -80.46848 27941 ft 433 kts 329°
2026-05-03 22:29 27.20861 -80.48105 28330 ft 436 kts 329°
2026-05-03 22:29 27.23695 -80.49383 28710 ft 439 kts 329°
2026-05-03 22:30 27.25580 -80.50226 28955 ft 441 kts 329°
2026-05-03 22:30 27.28447 -80.51500 29320 ft 444 kts 329°
2026-05-03 22:30 27.31329 -80.52775 29685 ft 447 kts 329°
2026-05-03 22:30 27.35197 -80.54483 30161 ft 451 kts 329°
2026-05-03 22:31 27.37182 -80.55356 30405 ft 453 kts 329°
2026-05-03 22:31 27.40111 -80.56591 30768 ft 456 kts 330°
2026-05-03 22:31 27.43131 -80.57800 31138 ft 459 kts 331°
2026-05-03 22:31 27.46158 -80.58972 31497 ft 461 kts 331°
2026-05-03 22:32 27.49210 -80.60142 31839 ft 463 kts 331°
2026-05-03 22:32 27.52261 -80.61315 32326 ft 461 kts 330°
2026-05-03 22:32 27.55287 -80.62492 32844 ft 458 kts 330°
2026-05-03 22:32 27.58246 -80.63661 33321 ft 455 kts 329°
2026-05-03 22:33 27.61241 -80.64856 33821 ft 453 kts 329°
2026-05-03 22:33 27.64203 -80.66043 34318 ft 450 kts 328°
2026-05-03 22:33 27.67155 -80.67227 34784 ft 448 kts 328°
2026-05-03 22:33 27.70064 -80.68396 35194 ft 447 kts 328°
2026-05-03 22:34 27.73010 -80.69579 35554 ft 447 kts 328°
2026-05-03 22:34 27.75944 -80.70756 35915 ft 447 kts 328°
2026-05-03 22:34 27.78879 -80.71930 36270 ft 446 kts 328°
2026-05-03 22:34 27.81776 -80.73088 36601 ft 446 kts 328°
2026-05-03 22:35 27.84697 -80.74256 36902 ft 446 kts 328°
2026-05-03 22:35 27.87624 -80.75431 37052 ft 444 kts 328°
2026-05-03 22:35 27.90534 -80.76593 37065 ft 440 kts 328°
2026-05-03 22:36 27.96283 -80.78884 37072 ft 435 kts 328°
2026-05-03 22:36 28.01957 -80.81171 37072 ft 434 kts 327°
2026-05-03 22:37 28.07670 -80.83478 37072 ft 435 kts 327°
2026-05-03 22:37 28.13371 -80.85771 37071 ft 435 kts 327°
2026-05-03 22:38 28.19057 -80.88054 37068 ft 435 kts 327°
2026-05-03 22:38 28.24768 -80.90357 37070 ft 435 kts 327°
2026-05-03 22:39 28.30485 -80.92667 37078 ft 435 kts 327°
2026-05-03 22:39 28.36156 -80.94965 37088 ft 435 kts 327°
2026-05-03 22:40 28.41862 -80.97276 37097 ft 435 kts 327°
2026-05-03 22:40 28.47577 -80.99589 37096 ft 435 kts 327°
2026-05-03 22:41 28.53245 -81.01886 37102 ft 435 kts 327°
2026-05-03 22:41 28.58949 -81.04207 37097 ft 435 kts 327°
2026-05-03 22:42 28.64674 -81.06534 37105 ft 435 kts 327°
2026-05-03 22:42 28.70347 -81.08846 37112 ft 435 kts 326°
2026-05-03 22:43 28.76064 -81.11172 37105 ft 435 kts 326°
2026-05-03 22:43 28.81743 -81.13490 37114 ft 435 kts 326°
2026-05-03 22:44 28.87454 -81.15829 37106 ft 435 kts 326°
2026-05-03 22:44 28.93151 -81.18161 37108 ft 435 kts 326°
2026-05-03 22:45 28.98850 -81.20486 37110 ft 434 kts 326°
2026-05-03 22:45 29.04515 -81.22801 37117 ft 435 kts 326°
2026-05-03 22:46 29.10216 -81.25140 37121 ft 435 kts 326°
2026-05-03 22:46 29.15916 -81.27494 37123 ft 435 kts 326°
2026-05-03 22:47 29.21597 -81.29841 37126 ft 436 kts 326°
2026-05-03 22:47 29.27397 -81.32042 37124 ft 450 kts 334°
2026-05-03 22:47 29.30572 -81.32512 37123 ft 468 kts 344°
2026-05-03 22:48 29.33824 -81.32691 37124 ft 468 kts 344°
2026-05-03 22:48 29.40302 -81.33049 37123 ft 468 kts 344°
2026-05-03 22:49 29.46811 -81.33436 37124 ft 468 kts 343°
2026-05-03 22:49 29.53337 -81.33836 37120 ft 469 kts 343°
2026-05-03 22:50 29.59837 -81.34218 37121 ft 469 kts 343°
2026-05-03 22:50 29.66382 -81.34596 37124 ft 470 kts 343°
2026-05-03 22:51 29.72919 -81.34982 37126 ft 470 kts 343°
2026-05-03 22:51 29.79417 -81.35374 37131 ft 470 kts 343°
2026-05-03 22:52 29.85962 -81.35760 37136 ft 470 kts 343°
2026-05-03 22:52 29.92504 -81.36145 37139 ft 470 kts 343°
2026-05-03 22:53 29.99051 -81.36530 37144 ft 470 kts 343°
2026-05-03 22:53 30.05549 -81.36922 37147 ft 470 kts 343°
2026-05-03 22:54 30.12084 -81.37318 37150 ft 470 kts 343°
2026-05-03 22:54 30.18628 -81.37707 37142 ft 470 kts 343°
2026-05-03 22:55 30.25172 -81.38099 37123 ft 471 kts 343°
2026-05-03 22:55 30.31689 -81.38491 37120 ft 472 kts 343°
2026-05-03 22:56 30.38280 -81.38888 37126 ft 473 kts 343°
2026-05-03 22:56 30.41543 -81.39083 36871 ft 473 kts 343°
2026-05-03 22:56 30.44865 -81.39291 35735 ft 485 kts 344°
2026-05-03 22:56 30.48249 -81.39500 34983 ft 486 kts 345°
2026-05-03 22:57 30.51627 -81.39682 34362 ft 483 kts 345°
2026-05-03 22:57 30.54976 -81.39842 33800 ft 480 kts 346°
2026-05-03 22:57 30.58309 -81.39994 33288 ft 475 kts 346°
2026-05-03 22:57 30.61567 -81.40145 32774 ft 470 kts 346°
2026-05-03 22:58 30.64821 -81.40304 32253 ft 466 kts 346°
2026-05-03 22:58 30.68054 -81.40471 31739 ft 462 kts 346°
2026-05-03 22:58 30.71257 -81.40646 31200 ft 458 kts 346°
2026-05-03 22:58 30.74402 -81.40823 30659 ft 457 kts 346°
2026-05-03 22:59 30.77569 -81.41006 30194 ft 451 kts 347°
2026-05-03 22:59 30.80694 -81.41175 29709 ft 447 kts 347°
2026-05-03 22:59 30.83798 -81.41338 29202 ft 443 kts 347°
2026-05-03 22:59 30.86865 -81.41501 28707 ft 439 kts 347°
2026-05-03 23:00 30.89912 -81.41664 28217 ft 435 kts 347°
2026-05-03 23:00 30.92917 -81.41825 27717 ft 431 kts 347°
2026-05-03 23:00 30.95872 -81.41982 27244 ft 428 kts 348°
2026-05-03 23:00 30.98836 -81.42137 26752 ft 425 kts 348°
2026-05-03 23:01 31.01789 -81.42292 26282 ft 422 kts 348°
2026-05-03 23:01 31.04713 -81.42449 25853 ft 419 kts 348°
2026-05-03 23:01 31.07620 -81.42604 25426 ft 415 kts 348°
2026-05-03 23:01 31.10500 -81.42758 25003 ft 412 kts 349°
2026-05-03 23:02 31.13360 -81.42911 24589 ft 410 kts 349°
2026-05-03 23:02 31.16198 -81.43063 23947 ft 403 kts 349°
2026-05-03 23:02 31.18950 -81.43208 23143 ft 398 kts 349°
2026-05-03 23:02 31.21742 -81.43353 22315 ft 393 kts 350°
2026-05-03 23:03 31.24432 -81.43426 21563 ft 390 kts 355°
2026-05-03 23:03 31.27096 -81.43042 21195 ft 379 kts
2026-05-03 23:03 31.29626 -81.42376 20805 ft 365 kts
2026-05-03 23:03 31.32056 -81.41731 20431 ft 352 kts
2026-05-03 23:04 31.34436 -81.41107 20071 ft 350 kts
2026-05-03 23:04 31.36817 -81.40489 19700 ft 349 kts
2026-05-03 23:04 31.39186 -81.39875 19332 ft 347 kts
2026-05-03 23:04 31.41509 -81.39275 18963 ft 345 kts
2026-05-03 23:05 31.43893 -81.38660 18598 ft 364 kts
2026-05-03 23:05 31.46504 -81.37997 18220 ft 397 kts
2026-05-03 23:05 31.49243 -81.37291 17835 ft 405 kts
2026-05-03 23:05 31.52001 -81.36564 17458 ft 405 kts
2026-05-03 23:06 31.54714 -81.35838 17097 ft 403 kts
2026-05-03 23:06 31.57450 -81.35104 16752 ft 401 kts
2026-05-03 23:06 31.60166 -81.34380 16380 ft 398 kts
2026-05-03 23:06 31.62863 -81.33664 15997 ft 395 kts
2026-05-03 23:07 31.65545 -81.32954 15621 ft 392 kts
2026-05-03 23:07 31.68169 -81.32257 15250 ft 390 kts
2026-05-03 23:07 31.70812 -81.31553 14870 ft 387 kts
2026-05-03 23:07 31.73439 -81.30854 14484 ft 385 kts
2026-05-03 23:08 31.76047 -81.30155 14118 ft 382 kts
2026-05-03 23:08 31.78648 -81.29832 13745 ft 370 kts 351°
2026-05-03 23:08 31.81089 -81.30548 13365 ft 355 kts 330°
2026-05-03 23:08 31.83167 -81.31981 12909 ft 349 kts 323°
2026-05-03 23:09 31.85202 -81.33535 12410 ft 347 kts 323°
2026-05-03 23:09 31.87216 -81.35095 11935 ft 345 kts 322°
2026-05-03 23:09 31.89173 -81.36620 11424 ft 326 kts 323°
2026-05-03 23:09 31.90403 -81.37582 11095 ft 316 kts 323°
2026-05-03 23:10 31.92202 -81.39029 10593 ft 310 kts 322°
2026-05-03 23:10 31.93880 -81.40593 10114 ft 303 kts 309°
2026-05-03 23:10 31.94951 -81.42665 9634 ft 300 kts 294°
2026-05-03 23:10 31.95780 -81.44891 9130 ft 290 kts 291°
2026-05-03 23:11 31.96165 -81.47167 8631 ft 279 kts 275°
2026-05-03 23:11 31.96281 -81.49412 8152 ft 273 kts 279°
2026-05-03 23:11 31.96910 -81.51493 7665 ft 275 kts 302°
2026-05-03 23:11 31.98255 -81.53137 7159 ft 280 kts 326°
2026-05-03 23:12 32.00053 -81.53964 6661 ft 286 kts 351°
2026-05-03 23:12 32.02052 -81.53835 6183 ft 292 kts 14°
2026-05-03 23:12 32.03881 -81.52772 5701 ft 296 kts 30°
2026-05-03 23:12 32.05606 -81.51450 5192 ft 291 kts 33°
2026-05-03 23:13 32.07251 -81.50129 4687 ft 281 kts 33°
2026-05-03 23:13 32.08819 -81.48849 4417 ft 265 kts 34°
2026-05-03 23:13 32.10299 -81.47640 4183 ft 255 kts 34°
2026-05-03 23:13 32.11723 -81.46465 3936 ft 250 kts 38°
2026-05-03 23:14 32.12780 -81.44901 3684 ft 240 kts 68°
2026-05-03 23:14 32.13057 -81.43004 3483 ft 233 kts 91°
2026-05-03 23:14 32.13042 -81.41106 3247 ft 228 kts 91°
2026-05-03 23:14 32.13020 -81.39248 2896 ft 224 kts 92°
2026-05-03 23:15 32.13003 -81.37447 2600 ft 215 kts 91°
2026-05-03 23:15 32.12990 -81.35736 2324 ft 205 kts 92°
2026-05-03 23:15 32.12977 -81.34096 2074 ft 196 kts 93°
2026-05-03 23:15 32.12965 -81.32528 1794 ft 184 kts 93°
2026-05-03 23:16 32.12956 -81.31087 1561 ft 167 kts 93°
2026-05-03 23:16 32.12945 -81.29773 1358 ft 153 kts 94°
2026-05-03 23:16 32.12935 -81.28586 1162 ft 139 kts 95°
2026-05-03 23:16 32.12925 -81.27469 981 ft 134 kts 95°
2026-05-03 23:17 32.12915 -81.26391 804 ft 133 kts 95°
2026-05-03 23:17 32.12905 -81.25302 636 ft 132 kts 95°
2026-05-03 23:17 32.12895 -81.24219 451 ft 132 kts 95°
2026-05-03 23:17 32.12884 -81.23132 273 ft 132 kts 94°
2026-05-03 23:18 32.12879 -81.22045 99 ft 132 kts 93°
2026-05-03 23:18 32.12867 -81.21013 38 ft 108 kts 90°
2026-05-03 23:18 32.12863 -81.20477 40 ft 30 kts 91°
2026-05-03 23:18 32.12916 -81.20336 43 ft 9 kts
2026-05-03 23:19 32.12985 -81.20331 42 ft 11 kts
2026-05-03 23:19 32.13069 -81.20330 45 ft 13 kts 360°
2026-05-03 23:19 32.13167 -81.20330 46 ft 16 kts
2026-05-03 23:19 32.13289 -81.20329 46 ft 19 kts 359°
2026-05-03 23:20 32.13421 -81.20331 48 ft 19 kts
2026-05-03 23:20 32.13565 -81.20333 49 ft 22 kts
2026-05-03 23:20 32.13668 -81.20431 42 ft 25 kts 270°
2026-05-03 23:20 32.13670 -81.20650 35 ft 13 kts 261°
2026-05-03 23:21 32.13614 -81.20671 36 ft 7 kts 174°
2026-05-03 23:21 32.13600 -81.20670 36 ft 0 kts 175°